2024/04/01 11:50:00,0.0,14.4
2024/04/01 12:00:00,0.0,14.0
2024/04/01 12:10:00,0.0,12.9
2024/04/01 12:20:00,0.0,12.9
2024/04/01 12:30:00,0.0,12.7
2024/04/01 12:40:00,0.0,12.1
2024/04/01 12:50:00,0.0,12.2
2024/04/01 13:00:00,0.0,12.6
2024/04/01 13:10:00,0.0,12.4
2024/04/01 13:20:00,0.0,12.3
2024/04/01 13:30:00,0.0,12.2
2024/04/01 13:40:00,0.0,12.2
2024/04/01 13:50:00,0.0,12.5
2024/04/01 14:00:00,0.0,12.3
2024/04/01 14:10:00,0.0,12.3
2024/04/01 14:20:00,0.0,12.4
2024/04/01 14:30:00,0.0,12.3
2024/04/01 14:40:00,0.0,12.2
2024/04/01 14:50:00,0.0,12.1
2024/04/01 15:00:00,0.0,12.0
2024/04/01 15:10:00,0.0,11.6
2024/04/01 15:20:00,0.0,11.7
2024/04/01 15:30:00,0.0,11.7
2024/04/01 15:40:00,0.0,11.5
2024/04/01 15:50:00,0.0,11.4
2024/04/01 16:00:00,0.0,11.3
2024/04/01 16:10:00,0.0,11.0
2024/04/01 16:20:00,0.0,11.1
2024/04/01 16:30:00,0.0,11.2
2024/04/01 16:40:00,0.0,11.0
2024/04/01 16:50:00,0.0,11.0
2024/04/01 17:00:00,0.0,10.8
2024/04/01 17:10:00,0.0,10.5
2024/04/01 17:20:00,0.0,10.6
2024/04/01 17:30:00,0.0,10.4
2024/04/01 17:40:00,0.0,9.9
2024/04/01 17:50:00,0.0,9.4
2024/04/01 18:00:00,0.0,8.8
2024/04/01 18:10:00,0.0,8.1
2024/04/01 18:20:00,0.0,7.4
2024/04/01 18:30:00,0.0,6.8
2024/04/01 18:40:00,0.0,6.1
2024/04/01 18:50:00,0.0,5.9
2024/04/01 19:00:00,0.0,5.5
2024/04/01 19:10:00,0.0,5.3
2024/04/01 19:20:00,0.0,4.9
2024/04/01 19:30:00,0.0,4.7
2024/04/01 19:40:00,0.0,4.5
2024/04/01 19:50:00,0.0,4.2
2024/04/01 20:00:00,0.0,4.1
2024/04/01 20:10:00,0.0,3.8
2024/04/01 20:20:00,0.0,3.8
2024/04/01 20:30:00,0.0,3.6
2024/04/01 20:40:00,0.0,3.5
2024/04/01 20:50:00,0.0,3.5
2024/04/01 21:00:00,0.0,3.3
2024/04/01 21:10:00,0.0,3.1
2024/04/01 21:20:00,0.0,3.0
2024/04/01 21:30:00,0.0,3.0
2024/04/01 21:40:00,0.0,2.9
2024/04/01 21:50:00,0.0,2.7
2024/04/01 22:00:00,0.0,2.8
2024/04/01 22:10:00,0.0,2.6
2024/04/01 22:20:00,0.0,2.5
2024/04/01 22:30:00,0.0,2.4
2024/04/01 22:40:00,0.0,2.2
2024/04/01 22:50:00,0.0,2.1
2024/04/01 23:00:00,0.0,2.3
2024/04/01 23:10:00,0.0,2.0
2024/04/01 23:20:00,0.0,1.7
2024/04/01 23:30:00,0.0,2.0
2024/04/01 23:40:00,0.0,1.8
2024/04/01 23:50:00,0.0,2.1
